Time,TemperatureF,DewpointF,PressureIn,WindDirection,WindDirectionDegrees,WindSpeedMPH,WindSpeedGustMPH,Humidity,HourlyPrecipIn,Conditions,Clouds,dailyrainin,SolarRadiationWatts/m^2,SoftwareType,DateUTC
2013-03-23 00:02:00,52.0,49.0,-100.00,North,350,6.0,13.0,89,0.00,,,0.00,0.000000,,2013-03-23 05:02:00,
2013-03-23 00:10:00,52.0,49.0,-100.00,North,11,8.0,12.0,90,0.00,,,0.00,0.000000,,2013-03-23 05:10:00,
2013-03-23 00:42:00,52.0,49.0,-100.00,North,11,8.0,12.0,90,0.00,,,0.00,0.000000,,2013-03-23 05:42:00,
2013-03-23 00:52:00,52.0,49.0,-100.00,North,11,8.0,12.0,90,0.00,,,0.00,0.000000,,2013-03-23 05:52:00,
2013-03-23 01:02:00,52.0,49.0,-100.00,North,11,8.0,12.0,90,0.00,,,0.00,0.000000,,2013-03-23 06:02:00,
2013-03-23 01:10:00,51.0,49.0,-100.00,North,10,8.0,12.0,92,0.00,,,0.00,0.000000,,2013-03-23 06:10:00,
2013-03-23 01:42:00,51.0,49.0,-100.00,North,10,8.0,12.0,92,0.00,,,0.00,0.000000,,2013-03-23 06:42:00,
2013-03-23 01:52:00,51.0,49.0,-100.00,North,10,8.0,12.0,92,0.00,,,0.00,0.000000,,2013-03-23 06:52:00,
2013-03-23 02:02:00,51.0,49.0,-100.00,North,10,8.0,12.0,92,0.00,,,0.00,0.000000,,2013-03-23 07:02:00,
2013-03-23 02:10:00,51.0,50.0,-100.00,NNE,26,7.0,10.0,95,0.00,,,0.00,0.000000,,2013-03-23 07:10:00,
2013-03-23 02:33:00,51.0,50.0,-100.00,NNE,26,7.0,10.0,95,0.00,,,0.00,0.000000,,2013-03-23 07:33:00,
2013-03-23 02:42:00,51.0,50.0,-100.00,NNE,26,7.0,10.0,95,0.00,,,0.00,0.000000,,2013-03-23 07:42:00,
2013-03-23 02:52:00,51.0,50.0,-100.00,NNE,26,7.0,10.0,95,0.00,,,0.00,0.000000,,2013-03-23 07:52:00,
2013-03-23 03:02:00,51.0,50.0,-100.00,NNE,26,7.0,10.0,95,0.00,,,0.00,0.000000,,2013-03-23 08:02:00,
2013-03-23 03:10:00,51.0,49.0,-100.00,NNE,13,7.0,12.0,94,0.00,,,0.00,0.000000,,2013-03-23 08:10:00,
2013-03-23 03:32:00,51.0,49.0,-100.00,NNE,13,7.0,12.0,94,0.00,,,0.00,0.000000,,2013-03-23 08:32:00,
2013-03-23 03:42:00,51.0,49.0,-100.00,NNE,13,7.0,12.0,94,0.00,,,0.00,0.000000,,2013-03-23 08:42:00,
2013-03-23 03:52:00,51.0,49.0,-100.00,NNE,13,7.0,12.0,94,0.00,,,0.00,0.000000,,2013-03-23 08:52:00,
2013-03-23 04:02:00,51.0,49.0,-100.00,NNE,13,7.0,12.0,94,0.00,,,0.00,0.000000,,2013-03-23 09:02:00,
2013-03-23 04:10:00,51.0,49.0,-100.00,NNE,12,7.0,10.0,94,0.00,,,0.00,0.000000,,2013-03-23 09:10:00,
2013-03-23 04:33:00,51.0,49.0,-100.00,NNE,12,7.0,10.0,94,0.00,,,0.00,0.000000,,2013-03-23 09:33:00,
2013-03-23 04:43:00,51.0,49.0,-100.00,NNE,12,7.0,10.0,94,0.00,,,0.00,0.000000,,2013-03-23 09:43:00,
2013-03-23 04:53:00,51.0,49.0,-100.00,NNE,12,7.0,10.0,94,0.00,,,0.00,0.000000,,2013-03-23 09:53:00,
2013-03-23 05:03:00,51.0,49.0,-100.00,NNE,12,7.0,10.0,94,0.00,,,0.00,0.000000,,2013-03-23 10:03:00,
2013-03-23 05:10:00,51.0,49.0,-100.00,North,355,7.0,10.0,94,0.00,,,0.00,0.000000,,2013-03-23 10:10:00,
2013-03-23 05:34:00,51.0,49.0,-100.00,North,355,7.0,10.0,94,0.00,,,0.00,0.000000,,2013-03-23 10:34:00,
2013-03-23 05:43:00,51.0,49.0,-100.00,North,355,7.0,10.0,94,0.00,,,0.00,0.000000,,2013-03-23 10:43:00,
2013-03-23 05:52:00,51.0,49.0,-100.00,North,355,7.0,10.0,94,0.00,,,0.00,0.000000,,2013-03-23 10:52:00,
2013-03-23 06:03:00,51.0,49.0,-100.00,North,355,7.0,10.0,94,0.00,,,0.00,0.000000,,2013-03-23 11:03:00,
2013-03-23 06:32:00,51.0,50.0,-100.00,North,1,9.0,12.0,95,0.00,,,0.00,0.000000,,2013-03-23 11:32:00,
2013-03-23 06:42:00,51.0,50.0,-100.00,North,1,9.0,12.0,95,0.00,,,0.00,0.000000,,2013-03-23 11:42:00,
2013-03-23 06:52:00,51.0,50.0,-100.00,North,1,9.0,12.0,95,0.00,,,0.00,0.000000,,2013-03-23 11:52:00,
2013-03-23 07:02:00,51.0,50.0,-100.00,North,1,9.0,12.0,95,0.00,,,0.00,0.000000,,2013-03-23 12:02:00,
2013-03-23 07:10:00,51.0,50.0,-100.00,North,357,8.0,13.0,95,0.00,,,0.00,0.000000,,2013-03-23 12:10:00,
2013-03-23 07:43:00,51.0,50.0,-100.00,North,357,8.0,13.0,95,0.00,,,0.00,0.000000,,2013-03-23 12:43:00,
2013-03-23 07:53:00,51.0,50.0,-100.00,North,357,8.0,13.0,95,0.00,,,0.00,0.000000,,2013-03-23 12:53:00,
2013-03-23 08:03:00,51.0,50.0,-100.00,North,357,8.0,13.0,95,0.00,,,0.00,0.000000,,2013-03-23 13:03:00,
2013-03-23 08:10:00,51.0,50.0,-100.00,NNE,25,10.0,13.0,95,0.00,,,0.00,5.000000,,2013-03-23 13:10:00,
2013-03-23 08:33:00,51.0,50.0,-100.00,NNE,25,10.0,13.0,95,0.00,,,0.00,5.000000,,2013-03-23 13:33:00,
2013-03-23 08:43:00,51.0,50.0,-100.00,NNE,25,10.0,13.0,95,0.00,,,0.00,5.000000,,2013-03-23 13:43:00,
2013-03-23 08:53:00,51.0,50.0,-100.00,NNE,25,10.0,13.0,95,0.00,,,0.00,5.000000,,2013-03-23 13:53:00,
2013-03-23 09:03:00,51.0,50.0,-100.00,NNE,25,10.0,13.0,95,0.00,,,0.00,5.000000,,2013-03-23 14:03:00,
2013-03-23 09:10:00,51.0,50.0,-100.00,NE,35,9.0,15.0,96,0.01,,,0.01,24.000000,,2013-03-23 14:10:00,
2013-03-23 09:33:00,51.0,50.0,-100.00,NE,35,9.0,15.0,96,0.01,,,0.01,24.000000,,2013-03-23 14:33:00,
2013-03-23 09:43:00,51.0,50.0,-100.00,NE,35,9.0,15.0,96,0.01,,,0.01,24.000000,,2013-03-23 14:43:00,
2013-03-23 09:53:00,51.0,50.0,-100.00,NE,35,9.0,15.0,96,0.01,,,0.01,24.000000,,2013-03-23 14:53:00,
2013-03-23 10:03:00,51.0,50.0,-100.00,NE,35,9.0,15.0,96,0.01,,,0.01,24.000000,,2013-03-23 15:03:00,
2013-03-23 10:10:00,51.0,51.0,-100.00,NNE,16,8.0,11.0,99,0.02,,,0.03,54.000000,,2013-03-23 15:10:00,
2013-03-23 10:34:00,51.0,51.0,-100.00,NNE,16,8.0,11.0,99,0.02,,,0.03,54.000000,,2013-03-23 15:34:00,
2013-03-23 10:44:00,51.0,51.0,-100.00,NNE,16,8.0,11.0,99,0.02,,,0.03,54.000000,,2013-03-23 15:44:00,
2013-03-23 10:53:00,51.0,51.0,-100.00,NNE,16,8.0,11.0,99,0.02,,,0.03,54.000000,,2013-03-23 15:53:00,
2013-03-23 11:03:00,51.0,51.0,-100.00,NNE,16,8.0,11.0,99,0.02,,,0.03,54.000000,,2013-03-23 16:03:00,
2013-03-23 11:10:00,52.0,51.0,-100.00,NNE,12,8.0,12.0,98,0.00,,,0.03,113.000000,,2013-03-23 16:10:00,
2013-03-23 11:33:00,52.0,51.0,-100.00,NNE,12,8.0,12.0,98,0.00,,,0.03,113.000000,,2013-03-23 16:33:00,
2013-03-23 11:43:00,52.0,51.0,-100.00,NNE,12,8.0,12.0,98,0.00,,,0.03,113.000000,,2013-03-23 16:43:00,
2013-03-23 11:53:00,52.0,51.0,-100.00,NNE,12,8.0,12.0,98,0.00,,,0.03,113.000000,,2013-03-23 16:53:00,
2013-03-23 12:02:00,52.0,51.0,-100.00,NNE,12,8.0,12.0,98,0.00,,,0.03,113.000000,,2013-03-23 17:02:00,
2013-03-23 12:10:00,53.0,52.0,-100.00,NE,46,7.0,11.0,98,0.00,,,0.03,164.000000,,2013-03-23 17:10:00,
2013-03-23 12:33:00,53.0,52.0,-100.00,NE,46,7.0,11.0,98,0.00,,,0.03,164.000000,,2013-03-23 17:33:00,
2013-03-23 12:43:00,53.0,52.0,-100.00,NE,46,7.0,11.0,98,0.00,,,0.03,164.000000,,2013-03-23 17:43:00,
2013-03-23 12:53:00,53.0,52.0,-100.00,NE,46,7.0,11.0,98,0.00,,,0.03,164.000000,,2013-03-23 17:53:00,
2013-03-23 13:03:00,53.0,52.0,-100.00,NE,46,7.0,11.0,98,0.00,,,0.03,164.000000,,2013-03-23 18:03:00,
2013-03-23 13:10:00,56.0,54.0,-100.00,ENE,69,4.0,13.0,92,0.01,,,0.04,301.000000,,2013-03-23 18:10:00,
2013-03-23 13:43:00,56.0,54.0,-100.00,ENE,69,4.0,13.0,92,0.01,,,0.04,301.000000,,2013-03-23 18:43:00,
2013-03-23 13:53:00,56.0,54.0,-100.00,ENE,69,4.0,13.0,92,0.01,,,0.04,301.000000,,2013-03-23 18:53:00,
2013-03-23 14:03:00,56.0,54.0,-100.00,ENE,69,4.0,13.0,92,0.01,,,0.04,301.000000,,2013-03-23 19:03:00,
2013-03-23 14:10:00,56.0,53.0,-100.00,West,263,2.0,7.0,89,0.02,,,0.06,220.000000,,2013-03-23 19:10:00,
2013-03-23 14:43:00,56.0,53.0,-100.00,West,263,2.0,7.0,89,0.02,,,0.06,220.000000,,2013-03-23 19:43:00,
2013-03-23 14:53:00,56.0,53.0,-100.00,West,263,2.0,7.0,89,0.02,,,0.06,220.000000,,2013-03-23 19:53:00,
2013-03-23 15:03:00,56.0,53.0,-100.00,West,263,2.0,7.0,89,0.02,,,0.06,220.000000,,2013-03-23 20:03:00,
2013-03-23 15:10:00,58.0,55.0,-100.00,NNW,330,3.0,5.0,89,0.00,,,0.06,228.000000,,2013-03-23 20:10:00,
2013-03-23 15:43:00,58.0,55.0,-100.00,NNW,330,3.0,5.0,89,0.00,,,0.06,228.000000,,2013-03-23 20:43:00,
2013-03-23 15:53:00,58.0,55.0,-100.00,NNW,330,3.0,5.0,89,0.00,,,0.06,228.000000,,2013-03-23 20:53:00,
2013-03-23 16:02:00,58.0,55.0,-100.00,NNW,330,3.0,5.0,89,0.00,,,0.06,228.000000,,2013-03-23 21:02:00,
2013-03-23 16:10:00,58.0,56.0,-100.00,NNW,346,5.0,7.0,92,0.00,,,0.06,160.000000,,2013-03-23 21:10:00,
2013-03-23 16:33:00,58.0,56.0,-100.00,NNW,346,5.0,7.0,92,0.00,,,0.06,160.000000,,2013-03-23 21:33:00,
2013-03-23 16:43:00,58.0,56.0,-100.00,NNW,346,5.0,7.0,92,0.00,,,0.06,160.000000,,2013-03-23 21:43:00,
2013-03-23 16:54:00,58.0,56.0,-100.00,NNW,346,5.0,7.0,92,0.00,,,0.06,160.000000,,2013-03-23 21:54:00,
2013-03-23 17:03:00,58.0,56.0,-100.00,NNW,346,5.0,7.0,92,0.00,,,0.06,160.000000,,2013-03-23 22:03:00,
2013-03-23 17:10:00,58.0,55.0,-100.00,NNE,28,5.0,7.0,91,0.00,,,0.06,156.000000,,2013-03-23 22:10:00,
2013-03-23 17:33:00,58.0,55.0,-100.00,NNE,28,5.0,7.0,91,0.00,,,0.06,156.000000,,2013-03-23 22:33:00,
2013-03-23 17:43:00,58.0,55.0,-100.00,NNE,28,5.0,7.0,91,0.00,,,0.06,156.000000,,2013-03-23 22:43:00,
2013-03-23 17:53:00,58.0,55.0,-100.00,NNE,28,5.0,7.0,91,0.00,,,0.06,156.000000,,2013-03-23 22:53:00,
2013-03-23 18:02:00,58.0,55.0,-100.00,NNE,28,5.0,7.0,91,0.00,,,0.06,156.000000,,2013-03-23 23:02:00,
2013-03-23 18:10:00,58.0,57.0,-100.00,North,7,5.0,9.0,95,0.00,,,0.06,102.000000,,2013-03-23 23:10:00,
2013-03-23 18:33:00,58.0,57.0,-100.00,North,7,5.0,9.0,95,0.00,,,0.06,102.000000,,2013-03-23 23:33:00,
2013-03-23 18:43:00,58.0,57.0,-100.00,North,7,5.0,9.0,95,0.00,,,0.06,102.000000,,2013-03-23 23:43:00,
2013-03-23 18:52:00,58.0,57.0,-100.00,North,7,5.0,9.0,95,0.00,,,0.06,102.000000,,2013-03-23 23:52:00,
2013-03-23 19:02:00,58.0,57.0,-100.00,North,7,5.0,9.0,95,0.00,,,0.06,102.000000,,2013-03-24 00:02:00,
2013-03-23 19:10:00,57.0,57.0,-100.00,North,8,10.0,15.0,99,0.00,,,-99.99,23.000000,,2013-03-24 00:10:00,
2013-03-23 19:33:00,57.0,57.0,-100.00,North,8,10.0,15.0,99,0.00,,,-99.99,23.000000,,2013-03-24 00:33:00,
2013-03-23 19:42:00,57.0,57.0,-100.00,North,8,10.0,15.0,99,0.00,,,-99.99,23.000000,,2013-03-24 00:42:00,
2013-03-23 19:52:00,57.0,57.0,-100.00,North,8,10.0,15.0,99,0.00,,,-99.99,23.000000,,2013-03-24 00:52:00,
2013-03-23 20:02:00,57.0,57.0,-100.00,North,8,10.0,15.0,99,0.00,,,-99.99,23.000000,,2013-03-24 01:02:00,
2013-03-23 20:10:00,57.0,56.0,-100.00,NE,41,8.0,15.0,98,0.00,,,0.06,4.000000,,2013-03-24 01:10:00,
2013-03-23 20:33:00,57.0,56.0,-100.00,NE,41,8.0,15.0,98,0.00,,,0.06,4.000000,,2013-03-24 01:33:00,
2013-03-23 20:43:00,57.0,56.0,-100.00,NE,41,8.0,15.0,98,0.00,,,0.06,4.000000,,2013-03-24 01:43:00,
2013-03-23 20:53:00,57.0,56.0,-100.00,NE,41,8.0,15.0,98,0.00,,,0.06,4.000000,,2013-03-24 01:53:00,
2013-03-23 21:03:00,57.0,56.0,-100.00,NE,41,8.0,15.0,98,0.00,,,0.06,4.000000,,2013-03-24 02:03:00,
2013-03-23 21:10:00,57.0,56.0,-100.00,ENE,65,5.0,10.0,97,0.00,,,0.06,0.000000,,2013-03-24 02:10:00,
2013-03-23 21:43:00,57.0,56.0,-100.00,ENE,65,5.0,10.0,97,0.00,,,0.06,0.000000,,2013-03-24 02:43:00,
2013-03-23 21:52:00,57.0,56.0,-100.00,ENE,65,5.0,10.0,97,0.00,,,0.06,0.000000,,2013-03-24 02:52:00,
2013-03-23 22:02:00,57.0,56.0,-100.00,ENE,65,5.0,10.0,97,0.00,,,0.06,0.000000,,2013-03-24 03:02:00,
2013-03-23 22:10:00,56.0,55.0,-100.00,East,80,6.0,10.0,97,0.00,,,0.06,0.000000,,2013-03-24 03:10:00,
2013-03-23 22:33:00,56.0,55.0,-100.00,East,80,6.0,10.0,97,0.00,,,0.06,0.000000,,2013-03-24 03:33:00,
2013-03-23 22:43:00,56.0,55.0,-100.00,East,80,6.0,10.0,97,0.00,,,0.06,0.000000,,2013-03-24 03:43:00,
2013-03-23 22:53:00,56.0,55.0,-100.00,East,80,6.0,10.0,97,0.00,,,0.06,0.000000,,2013-03-24 03:53:00,
2013-03-23 23:03:00,56.0,55.0,-100.00,East,80,6.0,10.0,97,0.00,,,0.06,0.000000,,2013-03-24 04:03:00,
2013-03-23 23:10:00,56.0,55.0,-100.00,SSE,153,3.0,6.0,98,0.00,,,0.06,0.000000,,2013-03-24 04:10:00,
2013-03-23 23:33:00,56.0,55.0,-100.00,SSE,153,3.0,6.0,98,0.00,,,0.06,0.000000,,2013-03-24 04:33:00,
2013-03-23 23:43:00,56.0,55.0,-100.00,SSE,153,3.0,6.0,98,0.00,,,0.06,0.000000,,2013-03-24 04:43:00,
2013-03-23 23:53:00,56.0,55.0,-100.00,SSE,153,3.0,6.0,98,0.00,,,0.06,0.000000,,2013-03-24 04:53:00,